Location: Atherton
(17.2661°S, 145.4859°E)
Time: 04:29:57
(UTC+10:00)

Explorer 11/Cluster Stage 4 - Pass Details

Date: 24 June 2025
Orbit: 463 x 1188 km, 28.8° (Epoch: 19 July)

Event Time Altitude Azimuth Distance (km) Brightness Sun altitude
Rises 18:09:49 0° 246° (WSW) 3,445 10.6 -4.4°
Reaches altitude 10° 18:12:38 10° 246° (WSW) 2,377 9.7 -5.0°
Maximum altitude 18:18:12 86° 332° (NNW) 683 6.3 -6.2°
Drops below altitude 10° 18:22:39 10° 63° (ENE) 1,912 8.2 -7.2°
Sets 18:24:43 0° 63° (ENE) 2,722 9.0 -7.7°
